Weather in Zolotorechensk

Russia / Zabaykalsky Krai     51°03′10″N   116°44′16″E
В апреле 2022 года жителям России запретили посещать сайт meteo.paraplan.net по решению Генеральной прокуратуры. Аудитория сайта уменьшилась в 10 раз. Владельцы сайта не видят смысла в поддержке погодного сервера в таких условиях. Сайт будет закрыт в октябре.
temp.,
°C
wind,
m/s
gust,
m/s
humid.,
%
clouds,
%
prec.,
mm/h
press.,
hPa
HPBL,
m
25 september, sun
sun2500:00+2wnw11790 0.0 100710
03:00+1wsw1175100 0.0 100810
06:000wnw247796 0.0 101092
09:00+2wnw6118863 0.0 1011704
12:00+5w61057100 0.3 10101907
15:00+6wnw7114944 0.9 10102196
18:00+5wnw611435 0.5 10112029
21:00+1wnw39704 0.5 1014298
26 september, mon
mon2600:000sw117751 0.0 101510
03:00−1ssw1179100 0.0 101611
06:00−1ssw237361 0.0 101663
09:00+1sw248096 0.0 1015345
12:00+2sw2594100 0.4 1016482
15:00+4sw247261 0.6 1014870
18:00+5s2565100 0.0 1013421
21:00+2se228099 0.0 101433
27 september, tue
tue2700:00+2se2376100 0.0 101155
03:00+1se3375100 0.0 100862
06:00+1sse3473100 0.0 100568
09:00+6sw285896 0.0 1002259
12:00+9wnw61458100 0.0 1003667
15:00+11wnw71348100 0.0 10031174
18:00+7wnw61145100 0.0 1007929
21:00+4nw2847100 0.0 1009269
28 september, wed
wed2800:00+2n1154100 0.0 101110
03:00+1ene115986 0.0 101210
06:00+1ene115759 0.0 101323
09:00+4e124475 0.0 1012162
12:00+9ese2230100 0.0 1010954
15:00+11se2233100 0.0 10071136
18:00+9se2546100 0.0 1006165
21:00+6ese4114898 0.1 1006442
29 september, thu
thu2900:00+4e385067 0.0 1005230
03:00+2ene2260100 0.0 100332
06:00+3ene0059100 0.0 100313
09:00+3w4967100 0.0 1004601
12:00+2wnw61189100 0.1 1006717
15:00+3nw61072100 0.2 10071145
18:00+3nw5107373 0.1 10101275
21:000nw29885 0.1 1013246